Location: Aulnoy
(48.8410°N, 3.0967°E)
Time: 17:54:32
(UTC+00:00)

Okean O Rocket - Pass Details

Date: 09 February 2023
Orbit: 620 x 643 km, 98.1° (Epoch: 26 March)

Event Time Altitude Azimuth Distance (km) Brightness Sun altitude
Rises 18:08:21 0° 141° (SE) 2,923 4.7 -12.0°
Reaches altitude 10° 18:10:40 10° 133° (SE) 2,023 3.8 -12.4°
Maximum altitude 18:14:41 36° 67° (ENE) 1,022 2.2 -13.0°
Drops below altitude 10° 18:18:45 10° 1° (N) 2,048 4.1 -13.7°
Sets 18:21:06 0° 353° (N) 2,964 5.1 -14.1°
